sat.trackr.live / text

‹ back to catalog

2025-292C

NORAD 66995 · 2025-292C

PAYLOAD ACTIVE UNKNOWN

§ Identity

Operator
Country
PRC
Launch date
2025-12-10
Launch site
JSC
Launch vehicle
Mass (kg)
RCS (m²)

External: N2YO · Heavens-Above · Gunter

§ Orbital elements

Epoch: 2026-09-20T21:48:33.823584Z

Period
95.54 min
Inclination
97.6237°
Eccentricity
0.0015190
Mean motion
15.07278620 rev/d
Perigee alt
534.0 km
Apogee alt
555.0 km
Semi-major
6,922.7 km
B*
1.6868e-4
RAAN
338.7914°
Arg perigee
36.4103°
Mean anomaly
323.8155°
Rev number
4,286

§ Raw data

2025-292C1 66995U 25292C   26263.90872481  .00002487  00000+0  16868-3 0  99952 66995  97.6237 338.7914 0015190  36.4103 323.8155 15.07278620 42864

JSON: /api/v1/satellites/66995 · /tle

For live sub-satellite position, see the globe view (requires WebGL).

§ Visibility from observer

Set your observer location to see the next 7 days of passes ≥ 10°. The values pass through the URL so the page stays shareable.

No JS? Fill the form by hand. The geolocation button needs JavaScript.